Showing default

CSS (MENGTIAN), 54216

Orbit data source: Space-Track

CSS (MENGTIAN), 54216 is a payload satellite owned by ZZHGB (CN) in LEO that was launched on Mon, 31 Oct 2022 UTC via a CHANG ZHENG 5B launch vehicle from the Wenchang Satellite Launch Center (WSC). Payload-class satellites include a variety of spacecraft equipped with specific instruments for various scientific and technological missions. These include communications satellites like Starlink; space stations such as the ISS; scientific satellites like the Hubble; Earth observation satellites from companies like Planet Labs, Umbra, and HawkEye 360; GPS; miniature CubeSats for education and research; and military/defense satellites.

Loading next visibility...
Identifier
54216, 2022-143A
Orbit
LEO
Country
Flag of CNCN / PRC
Related business
Manufacturer
CAST
Mission
Operational spacecraft
Bus & Motor
TIANHE, Unknown motor
Mass
23,000 kg wet, 21,500 kg dry
Launch date (UTC)
2022-10-31 (4 years ago)
Launch vehicle
CHANG ZHENG 5B
Launch site
Wenchang Satellite Launch Center (WSC)
Object type
Payload
Rocket body
Debris
Shape & HBR
Unknown shape, 11.8 m
Radar Cross Section
Large (>1 m²)

Expand to show TLE details & history
Last TLE update: 2 days ago

TLE from 2 days ago
0 CSS (MENGTIAN)
1 54216U 22143A   26171.43213816  .00020661  00000-0  24268-3 0  9995
2 54216  41.4693 302.2526 0007384 105.8714 254.2939 15.60937952294359
Epoch: 2026-06-20T10:22Z
TLE epoch observation values (Epoch: 2026-06-20T10:22:16.737Z)
Latitude
-0.00001°
Longitude
-121.964°
Altitude
385.901 km
Speed
7.68 km/s
True Right ascension
20h 09m 00s
True Declination
0° 00' 00"
Sunlit
Object was in full shadow at epoch
Visualization orbit readout
Latitude
Unknown
Longitude
Unknown
Altitude
Unknown
Speed
Unknown
Apparent Right ascension
Unknown
Apparent Declination
Unknown
Sunlit
N/A
Visualization observer readout
Local Sidereal Time
21:33:47
Azimuth
Unknown
Elevation
Unknown
Doppler factor
Unknown
Orbital elements
Apogee altitude
392.175 km
Perigee altitude
382.184 km
Semi-major axis
6,765.317 km
Eccentricity
0.00074
Inclination
41.4693°
RAAN
302.2526°
Arg. of periapsis
105.8714°
True anomaly
254.21247°
Mean anomaly
254.2939°
Eccentric anomaly
254.25318°
Mean motion
3.90042 °/min
Orbital period
92.3 mins
BSTAR
0.00024268
Loading maneuver chart data...
Computing Atmospheric mass density...
Loading historical data...
Loading historical data...
Loading historical data...
Loading historical data...
Loading historical data...
Loading historical data...
Loading historical data...
Other satellites on launch #143 in the year 2022 (2022-10-31 UTC)

Documentation

Showing up to 5 results
|